IW5ELM Weather Reports


Display with metric or nautical units.
time (UTC)temp
F
wind
direction
speed
MPH
gust
MPH
rain 1hr
in
rain 24hr
in
rain mn
in
humidity
%
barometer
mb
20181016074640 72 45 0.0 3.0 0.00 0.00 0.00 10 1009.3
20181016074139 71 45 1.0 3.0 0.00 0.00 0.00 10 1009.3
20181016073639 71 45 0.0 3.0 0.00 0.00 0.00 10 1009.2
20181016073139 71 46 0.0 3.0 0.00 0.00 0.00 10 1009.3
20181016072639 72 0 0.0 0.0 0.00 0.00 0.00 10 1009.2
20181016072139 71 0 0.0 0.0 0.00 0.00 0.00 10 1009.3
20181016071639 70 45 0.0 0.0 0.00 0.00 0.00 10 1009.2
20181016071141 69 45 0.0 1.0 0.00 0.00 0.00 10 1009.2
20181016070639 69 45 0.0 1.0 0.00 0.00 0.00 10 1009.1
20181016070139 67 45 0.0 2.0 0.00 0.00 0.00 10 1009.0
20181016065639 66 45 0.0 2.0 0.00 0.00 0.00 10 1009.0
20181016065139 66 45 0.0 3.0 0.00 0.00 0.00 10 1009.0
20181016064639 65 45 0.0 3.0 0.00 0.00 0.00 10 1009.0
20181016064139 64 45 0.0 2.0 0.00 0.00 0.00 10 1009.1
20181016063639 64 45 0.0 1.0 0.00 0.00 0.00 10 1009.0
20181016063139 63 46 0.0 3.0 0.00 0.00 0.00 10 1009.0
20181016062640 63 45 0.0 3.0 0.00 0.00 0.00 10 1008.8
20181016062139 63 45 0.0 2.0 0.00 0.00 0.00 10 1008.7
20181016061639 63 45 0.0 3.0 0.00 0.00 0.00 10 1008.7
20181016061139 62 45 0.0 3.0 0.00 0.00 0.00 10 1008.7
20181016060639 62 45 0.0 3.0 0.00 0.00 0.00 10 1008.6
20181016060139 62 45 0.0 2.0 0.00 0.00 0.00 10 1008.6
20181016055640 62 45 0.0 3.0 0.00 0.00 0.00 10 1008.6
20181016055140 61 46 0.0 3.0 0.00 0.00 0.00 10 1008.5
20181016054640 61 45 0.0 3.0 0.00 0.00 0.00 10 1008.5
20181016054140 62 46 0.0 3.0 0.00 0.00 0.00 10 1008.4
20181016053639 62 46 1.0 4.0 0.00 0.00 0.00 10 1008.4
20181016053139 62 45 1.0 4.0 0.00 0.00 0.00 10 1008.2
20181016052639 62 45 0.0 3.0 0.00 0.00 0.00 10 1008.2
20181016052139 62 45 0.0 3.0 0.00 0.00 0.00 10 1008.1
20181016051639 62 45 1.0 4.0 0.00 0.00 0.00 10 1008.2
20181016051139 62 45 1.0 4.0 0.00 0.00 0.00 10 1008.1
20181016050639 62 45 1.0 4.0 0.00 0.00 0.00 10 1008.1
20181016050139 62 45 2.0 5.0 0.00 0.00 0.00 10 1008.1
20181016045639 62 45 2.0 5.0 0.00 0.00 0.00 10 1008.1
20181016045139 62 45 2.0 6.0 0.00 0.00 0.00 10 1008.2
20181016044639 62 45 2.0 6.0 0.00 0.00 0.00 10 1008.2
20181016044139 62 46 2.0 6.0 0.00 0.00 0.00 10 1008.2
20181016043639 61 45 1.0 5.0 0.00 0.00 0.00 10 1008.3
20181016043139 61 45 0.0 3.0 0.00 0.00 0.00 10 1008.4
20181016042639 61 45 0.0 3.0 0.00 0.00 0.00 10 1008.3
20181016042139 61 45 0.0 3.0 0.00 0.00 0.00 10 1008.4
20181016041639 61 46 0.0 3.0 0.00 0.00 0.00 10 1008.4
20181016041139 62 46 0.0 3.0 0.00 0.00 0.00 10 1008.4
20181016040639 62 0 0.0 0.0 0.00 0.00 0.00 10 1008.3
20181016040139 62 45 0.0 0.0 0.00 0.00 0.00 10 1008.2
20181016035639 62 45 0.0 3.0 0.00 0.00 0.00 10 1008.2
20181016035139 62 45 0.0 3.0 0.00 0.00 0.00 10 1008.2
20181016034639 62 45 0.0 3.0 0.00 0.00 0.00 10 1008.1
20181016034139 62 45 0.0 4.0 0.00 0.00 0.00 10 1008.2
20181016033639 62 46 1.0 4.0 0.00 0.00 0.00 10 1008.1
20181016033139 62 46 2.0 6.0 0.00 0.00 0.00 10 1008.1
20181016032639 62 45 1.0 6.0 0.00 0.00 0.00 10 1008.1
20181016032140 62 45 1.0 4.0 0.00 0.00 0.00 10 1008.1
20181016031640 62 46 0.0 3.0 0.00 0.00 0.00 10 1008.0
20181016031140 63 45 0.0 2.0 0.00 0.00 0.00 10 1008.1
20181016030639 63 45 0.0 2.0 0.00 0.00 0.00 10 1008.1
20181016030139 63 45 0.0 2.0 0.00 0.00 0.00 10 1008.2
20181016025639 63 46 0.0 2.0 0.00 0.00 0.00 10 1008.2
20181016025139 63 45 0.0 3.0 0.00 0.00 0.00 10 1008.2
20181016024639 63 45 0.0 3.0 0.00 0.00 0.00 10 1008.2
20181016024139 63 45 1.0 3.0 0.00 0.00 0.00 10 1008.1
20181016023639 63 45 1.0 3.0 0.00 0.00 0.00 10 1008.2
20181016023139 63 45 1.0 3.0 0.00 0.00 0.00 10 1008.2
20181016022639 63 45 0.0 3.0 0.00 0.00 0.00 10 1008.3
20181016022139 63 45 1.0 5.0 0.00 0.00 0.00 10 1008.3
20181016021639 63 45 1.0 5.0 0.00 0.00 0.00 10 1008.2
20181016021139 63 46 1.0 3.0 0.00 0.00 0.00 10 1008.2
20181016020638 63 46 1.0 5.0 0.00 0.00 0.00 10 1008.4
20181016020138 63 45 1.0 5.0 0.00 0.00 0.00 10 1008.3
20181016015640 63 45 0.0 3.0 0.00 0.00 0.00 10 1008.5
20181016015140 64 46 1.0 4.0 0.00 0.00 0.00 10 1008.6
20181016014639 64 45 1.0 4.0 0.00 0.00 0.00 10 1008.6
20181016014139 64 46 1.0 4.0 0.00 0.00 0.00 10 1008.6
20181016013639 64 45 1.0 4.0 0.00 0.00 0.00 10 1008.6
20181016013139 64 45 1.0 5.0 0.00 0.00 0.00 10 1008.6
20181016012639 64 45 1.0 5.0 0.00 0.00 0.00 10 1008.6
20181016012139 64 45 0.0 4.0 0.00 0.00 0.00 10 1008.4
20181016011639 64 45 1.0 5.0 0.00 0.00 0.00 10 1008.6
20181016011139 64 46 2.0 5.0 0.00 0.00 0.00 10 1008.5
20181016010639 63 45 2.0 4.0 0.00 0.00 0.00 10 1008.6
20181016010139 64 45 1.0 4.0 0.00 0.00 0.00 10 1008.7
20181016005639 63 45 1.0 4.0 0.00 0.00 0.00 10 1008.8
20181016005139 63 46 1.0 4.0 0.00 0.00 0.00 10 1008.8
20181016004639 63 46 1.0 5.0 0.00 0.00 0.00 10 1008.8
20181016004139 63 45 1.0 5.0 0.00 0.00 0.00 10 1008.8
20181016003639 63 46 2.0 5.0 0.00 0.00 0.00 10 1008.8
20181016003139 63 46 2.0 4.0 0.00 0.00 0.00 10 1008.9
20181016002453 63 46 0.0 3.0 0.00 0.00 0.00 10 1009.1
20181016001953 63 45 0.0 2.0 0.00 0.00 0.00 10 1009.0
20181016001453 63 45 0.0 1.0 0.00 0.00 0.00 10 1009.1
20181016000953 63 45 0.0 1.0 0.00 0.00 0.00 10 1009.2
20181016000453 63 45 0.0 2.0 0.00 0.00 0.00 10 1009.2
20181015235953 63 45 1.0 6.0 0.00 0.00 0.00 10 1009.2
20181015235453 62 46 2.0 6.0 0.00 0.00 0.00 10 1009.1
20181015234952 63 46 1.0 6.0 0.00 0.00 0.00 10 1009.1
20181015234452 62 46 0.0 4.0 0.00 0.00 0.00 10 1009.1
20181015233953 62 45 0.0 3.0 0.00 0.00 0.00 10 1009.1
20181015233452 62 45 0.0 3.0 0.00 0.00 0.00 10 1009.2
20181015232953 62 45 0.0 3.0 0.00 0.00 0.00 10 1009.2
20181015232454 63 45 1.0 4.0 0.00 0.00 0.00 10 1009.4
20181015231953 62 46 1.0 4.0 0.00 0.00 0.00 10 1009.3
20181015231452 63 45 1.0 5.0 0.00 0.00 0.00 10 1009.3
20181015230952 64 45 2.0 5.0 0.00 0.00 0.00 10 1009.2
20181015230452 64 45 2.0 6.0 0.00 0.00 0.00 10 1009.0
20181015225952 64 46 2.0 6.0 0.00 0.00 0.00 10 1008.7
20181015225452 64 46 1.0 5.0 0.00 0.00 0.00 10 1008.8
20181015224952 64 46 1.0 4.0 0.00 0.00 0.00 10 1008.9
20181015224451 64 45 1.0 5.0 0.00 0.00 0.00 10 1008.8
20181015223951 64 45 1.0 5.0 0.00 0.00 0.00 10 1008.8
20181015223453 64 46 0.0 3.0 0.00 0.00 0.00 10 1008.9
20181015222953 65 45 0.0 3.0 0.00 0.00 0.00 10 1008.8
20181015222454 65 45 0.0 3.0 0.00 0.00 0.00 10 1008.9
20181015221953 65 45 1.0 4.0 0.00 0.00 0.00 10 1008.8
20181015221453 65 45 1.0 6.0 0.00 0.00 0.00 10 1008.8
20181015220953 65 45 2.0 6.0 0.00 0.00 0.00 10 1008.7
20181015220453 65 45 3.0 8.0 0.00 0.00 0.00 10 1008.8
20181015215953 65 46 3.0 8.0 0.00 0.00 0.00 10 1008.8
20181015215453 66 46 4.0 10.0 0.00 0.00 0.00 10 1008.9
20181015214953 66 46 4.0 10.0 0.00 0.00 0.00 10 1008.8
20181015214452 65 45 4.0 9.0 0.00 0.00 0.00 10 1008.8
20181015213952 65 46 4.0 9.0 0.00 0.00 0.00 10 1008.8
20181015213452 65 46 4.0 9.0 0.00 0.00 0.00 10 1008.8
20181015212952 65 45 4.0 9.0 0.00 0.00 0.00 10 1008.9
20181015212452 65 46 3.0 9.0 0.00 0.00 0.00 10 1008.9
20181015211952 64 46 2.0 6.0 0.00 0.00 0.00 10 1008.9
20181015211452 64 46 2.0 7.0 0.00 0.00 0.00 10 1009.0
20181015210952 64 45 1.0 7.0 0.00 0.00 0.00 10 1009.0
20181015210452 64 46 1.0 4.0 0.00 0.00 0.00 10 1008.9
20181015205952 64 45 1.0 5.0 0.00 0.00 0.00 10 1009.0
20181015205452 65 45 1.0 5.0 0.00 0.00 0.00 10 1009.1
20181015204952 65 46 1.0 5.0 0.00 0.00 0.00 10 1009.0
20181015204452 65 45 1.0 5.0 0.00 0.00 0.00 10 1009.0
20181015203952 65 45 2.0 6.0 0.00 0.00 0.00 10 1009.0
20181015203451 65 45 2.0 6.0 0.00 0.00 0.00 10 1008.8
20181015202951 65 46 2.0 5.0 0.00 0.00 0.00 10 1008.9
20181015202451 65 46 1.0 5.0 0.00 0.00 0.00 10 1008.9
20181015201951 65 45 1.0 6.0 0.00 0.00 0.00 10 1008.7
20181015201452 65 45 1.0 6.0 0.00 0.00 0.00 10 1008.7
20181015200952 65 46 2.0 6.0 0.00 0.00 0.00 10 1008.6
20181015200452 65 46 2.0 6.0 0.00 0.00 0.00 10 1008.6
20181015195952 65 45 2.0 8.0 0.00 0.00 0.00 10 1008.7
20181015195452 65 46 3.0 8.0 0.00 0.00 0.00 10 1008.6
20181015194952 66 46 2.0 7.0 0.00 0.00 0.00 10 1008.6
20181015194452 66 46 3.0 8.0 0.00 0.00 0.00 10 1008.5
20181015193952 66 46 3.0 8.0 0.00 0.00 0.00 10 1008.3
20181015193452 66 46 3.0 6.0 0.00 0.00 0.00 10 1008.3
20181015192952 67 45 3.0 6.0 0.00 0.00 0.00 10 1008.2
20181015192452 67 46 2.0 6.0 0.00 0.00 0.00 10 1008.2
20181015191952 67 45 2.0 6.0 0.00 0.00 0.00 10 1008.1
20181015191452 67 46 1.0 6.0 0.00 0.00 0.00 10 1008.2
20181015190952 67 46 1.0 4.0 0.00 0.00 0.00 10 1008.2
20181015190451 67 46 1.0 4.0 0.00 0.00 0.00 10 1008.2
20181015185952 67 45 1.0 4.0 0.00 0.00 0.00 10 1008.3
20181015185452 67 45 1.0 5.0 0.00 0.00 0.00 10 1008.3
20181015184952 68 45 1.0 5.0 0.00 0.00 0.00 10 1008.2
20181015184452 68 46 1.0 3.0 0.00 0.00 0.00 10 1008.2
20181015183952 68 46 1.0 3.0 0.00 0.00 0.00 10 1008.2
20181015182952 69 46 0.0 3.0 0.00 0.00 0.00 10 1008.1
20181015182453 69 45 1.0 5.0 0.00 0.00 0.00 10 1008.0
20181015181952 69 45 2.0 6.0 0.00 0.00 0.00 10 1008.0
20181015181452 70 45 2.0 6.0 0.00 0.00 0.00 10 1007.9
20181015180952 70 45 3.0 6.0 0.00 0.00 0.00 10 1007.9
20181015180451 70 45 3.0 6.0 0.00 0.00 0.00 10 1007.9
20181015175951 70 46 3.0 7.0 0.00 0.00 0.00 10 1007.8
20181015175451 70 46 4.0 10.0 0.00 0.00 0.00 10 1007.9
20181015174951 70 45 4.0 10.0 0.00 0.00 0.00 10 1007.8
20181015174451 70 45 3.0 9.0 0.00 0.00 0.00 10 1007.7
20181015173952 70 45 3.0 8.0 0.00 0.00 0.00 10 1007.8
20181015173451 70 45 2.0 8.0 0.00 0.00 0.00 10 1007.8
20181015172951 70 46 2.0 6.0 0.00 0.00 0.00 10 1007.8
20181015172453 70 46 2.0 7.0 0.00 0.00 0.00 10 1007.8
20181015171953 71 46 2.0 7.0 0.00 0.00 0.00 10 1007.8
20181015171453 71 46 3.0 7.0 0.00 0.00 0.00 10 1007.7
20181015170953 71 46 3.0 7.0 0.00 0.00 0.00 10 1007.7
20181015170453 71 46 3.0 9.0 0.00 0.00 0.00 10 1007.6
20181015165952 71 46 3.0 9.0 0.00 0.00 0.00 10 1007.5
20181015165452 71 45 3.0 7.0 0.00 0.00 0.00 10 1007.6
20181015164951 71 45 3.0 7.0 0.00 0.00 0.00 10 1007.5
20181015164451 71 45 2.0 6.0 0.00 0.00 0.00 10 1007.5
20181015163951 71 45 2.0 8.0 0.00 0.00 0.00 10 1007.4
20181015163451 71 46 2.0 8.0 0.00 0.00 0.00 10 1007.5
20181015162952 72 46 2.0 8.0 0.00 0.00 0.00 10 1007.3
20181015162451 72 46 2.0 6.0 0.00 0.00 0.00 10 1007.4
20181015161953 73 45 2.0 6.0 0.00 0.00 0.00 10 1007.2
20181015161453 74 45 1.0 6.0 0.00 0.00 0.00 10 1007.3
20181015160953 75 45 1.0 6.0 0.00 0.00 0.00 10 1007.3
20181015160453 75 45 2.0 6.0 0.00 0.00 0.00 10 1007.2
20181015155953 75 45 2.0 9.0 0.00 0.00 0.00 10 1007.1
20181015155453 76 45 2.0 9.0 0.00 0.00 0.00 10 1007.1
20181015154953 76 46 2.0 6.0 0.00 0.00 0.00 10 1007.1
20181015154453 76 45 3.0 7.0 0.00 0.00 0.00 10 1007.1
20181015153953 77 46 3.0 7.0 0.00 0.00 0.00 10 1007.1
20181015153452 77 45 4.0 9.0 0.00 0.00 0.00 10 1007.1
20181015152951 78 46 3.0 9.0 0.00 0.00 0.00 10 1007.1
20181015152451 78 46 3.0 8.0 0.00 0.00 0.00 10 1007.1
20181015151951 78 46 4.0 9.0 0.00 0.00 0.00 10 1007.0
20181015151451 78 46 4.0 9.0 0.00 0.00 0.00 10 1007.0
20181015150951 78 46 4.0 9.0 0.00 0.00 0.00 10 1006.9
20181015150453 78 45 4.0 9.0 0.00 0.00 0.00 10 1006.9
20181015145953 79 46 4.0 9.0 0.00 0.00 0.00 10 1006.9
20181015145453 79 46 3.0 9.0 0.00 0.00 0.00 10 1006.8
20181015144953 79 46 4.0 11.0 0.00 0.00 0.00 10 1006.9
20181015144453 79 46 4.0 11.0 0.00 0.00 0.00 10 1006.8
20181015143953 80 46 5.0 11.0 0.00 0.00 0.00 10 1006.8
20181015143452 79 45 5.0 11.0 0.00 0.00 0.00 10 1006.8
20181015142952 80 46 4.0 11.0 0.00 0.00 0.00 10 1006.7
20181015142452 81 45 3.0 9.0 0.00 0.00 0.00 10 1006.8
20181015141952 80 45 4.0 9.0 0.00 0.00 0.00 10 1006.7
20181015141451 80 46 4.0 10.0 0.00 0.00 0.00 10 1006.7
20181015140951 81 46 3.0 10.0 0.00 0.00 0.00 10 1006.7
20181015140453 81 45 2.0 6.0 0.00 0.00 0.00 10 1006.7
20181015135952 80 45 2.0 6.0 0.00 0.00 0.00 10 1006.6
20181015135452 81 46 3.0 7.0 0.00 0.00 0.00 10 1006.6
20181015134952 80 46 3.0 8.0 0.00 0.00 0.00 10 1006.7
20181015134452 80 46 2.0 8.0 0.00 0.00 0.00 10 1006.7
20181015133952 81 45 2.0 8.0 0.00 0.00 0.00 10 1006.7
20181015133452 80 46 3.0 8.0 0.00 0.00 0.00 10 1006.7
20181015132952 81 46 2.0 7.0 0.00 0.00 0.00 10 1006.7
20181015132452 81 45 2.0 8.0 0.00 0.00 0.00 10 1006.6
20181015131951 80 45 3.0 10.0 0.00 0.00 0.00 10 1006.5
20181015131451 81 45 3.0 10.0 0.00 0.00 0.00 10 1006.6
20181015130951 81 46 2.0 8.0 0.00 0.00 0.00 10 1006.5
20181015130452 81 45 2.0 6.0 0.00 0.00 0.00 10 1006.5
20181015125951 82 46 3.0 7.0 0.00 0.00 0.00 10 1006.6
20181015125451 81 46 3.0 7.0 0.00 0.00 0.00 10 1006.6
20181015124951 82 46 2.0 6.0 0.00 0.00 0.00 10 1006.7
20181015124451 82 46 3.0 9.0 0.00 0.00 0.00 10 1006.6
20181015123952 81 45 4.0 9.0 0.00 0.00 0.00 10 1006.7
20181015123452 81 46 3.0 8.0 0.00 0.00 0.00 10 1006.7
20181015122952 81 45 3.0 8.0 0.00 0.00 0.00 10 1006.8
20181015122452 81 46 3.0 9.0 0.00 0.00 0.00 10 1006.8
20181015121952 81 46 3.0 9.0 0.00 0.00 0.00 10 1006.9
20181015121452 81 45 3.0 9.0 0.00 0.00 0.00 10 1007.0
20181015120952 81 46 1.0 7.0 0.00 0.00 0.00 10 1007.1
20181015120451 82 45 1.0 5.0 0.00 0.00 0.00 10 1007.1
20181015115951 82 46 1.0 7.0 0.00 0.00 0.00 10 1007.1
20181015115451 81 46 2.0 7.0 0.00 0.00 0.00 10 1007.1
20181015114951 81 45 3.0 7.0 0.00 0.00 0.00 10 1007.2
20181015114451 81 45 2.0 6.0 0.00 0.00 0.00 10 1007.1
20181015113953 81 46 2.0 6.0 0.00 0.00 0.00 10 1007.2
20181015113451 80 46 3.0 7.0 0.00 0.00 0.00 10 1007.4
20181015112953 80 46 3.0 7.0 0.00 0.00 0.00 10 1007.5
20181015112452 80 45 2.0 7.0 0.00 0.00 0.00 10 1007.4
20181015111952 80 45 1.0 6.0 0.00 0.00 0.00 10 1007.5
20181015111452 80 45 1.0 7.0 0.00 0.00 0.00 10 1007.6
20181015110952 80 46 3.0 7.0 0.00 0.00 0.00 10 1007.7
20181015110452 79 45 3.0 7.0 0.00 0.00 0.00 10 1007.8
20181015105952 79 45 2.0 6.0 0.00 0.00 0.00 10 1007.8
20181015105451 79 45 2.0 5.0 0.00 0.00 0.00 10 1008.0
20181015104951 79 45 2.0 6.0 0.00 0.00 0.00 10 1008.1
20181015104451 79 46 2.0 6.0 0.00 0.00 0.00 10 1008.1
20181015103951 79 46 1.0 6.0 0.00 0.00 0.00 10 1008.1
20181015103451 79 45 1.0 5.0 0.00 0.00 0.00 10 1008.1
20181015102951 79 45 1.0 6.0 0.00 0.00 0.00 10 1008.0
20181015102452 77 45 2.0 6.0 0.00 0.00 0.00 10 1008.1
20181015101951 78 46 1.0 4.0 0.00 0.00 0.00 10 1008.2
20181015101451 78 46 1.0 4.0 0.00 0.00 0.00 10 1008.1
20181015100951 77 45 1.0 4.0 0.00 0.00 0.00 10 1008.2
20181015100454 77 46 1.0 4.0 0.00 0.00 0.00 10 1008.2
20181015095953 77 46 1.0 3.0 0.00 0.00 0.00 10 1008.2
20181015095453 76 45 0.0 3.0 0.00 0.00 0.00 10 1008.2
20181015094953 76 46 1.0 3.0 0.00 0.00 0.00 10 1008.2
20181015094453 75 45 1.0 3.0 0.00 0.00 0.00 10 1008.3
20181015093953 75 46 1.0 5.0 0.00 0.00 0.00 10 1008.4
20181015092953 74 46 1.0 4.0 0.00 0.00 0.00 10 1008.4
20181015092452 73 45 1.0 3.0 0.00 0.00 0.00 10 1008.3
20181015091952 72 46 1.0 3.0 0.00 0.00 0.00 10 1008.2
20181015091452 72 45 2.0 5.0 0.00 0.00 0.00 10 1008.2
20181015090952 72 45 2.0 5.0 0.00 0.00 0.00 10 1008.2
20181015090452 73 46 1.0 4.0 0.00 0.00 0.00 10 1008.2
20181015085952 74 46 1.0 4.0 0.00 0.00 0.00 10 1008.2
20181015085452 74 45 0.0 3.0 0.00 0.00 0.00 10 1008.2
20181015084952 75 45 0.0 3.0 0.00 0.00 0.00 10 1008.2
20181015084452 73 46 0.0 3.0 0.00 0.00 0.00 10 1008.2
20181015083952 71 45 0.0 3.0 0.00 0.00 0.00 10 1008.2
20181015083451 70 46 1.0 3.0 0.00 0.00 0.00 10 1008.3
20181015082951 69 45 1.0 3.0 0.00 0.00 0.00 10 1008.3
20181015082452 69 46 1.0 3.0 0.00 0.00 0.00 10 1008.3
20181015081951 68 46 1.0 3.0 0.00 0.00 0.00 10 1008.4
20181015081451 69 46 1.0 4.0 0.00 0.00 0.00 10 1008.3
20181015080951 69 46 2.0 4.0 0.00 0.00 0.00 10 1008.3
20181015080451 72 46 2.0 3.0 0.00 0.00 0.00 10 1008.3
20181015075951 72 46 0.0 3.0 0.00 0.00 0.00 10 1008.1
20181015075451 73 45 0.0 3.0 0.00 0.00 0.00 10 1008.1
20181015074951 72 45 0.0 1.0 0.00 0.00 0.00 10 1008.1